FW5122 Weather Reports


Display with metric or nautical units.
time (UTC)temp
F
wind
direction
speed
MPH
gust
MPH
rain 1hr
in
rain 24hr
in
rain mn
in
humidity
%
barometer
mb
20260905034231 88 66 5.0 10.0 0.00 0.00 0.00 55 1014.1
20260905033531 88 60 5.0 10.0 0.00 0.00 0.00 54 1014.1
20260905032832 89 60 0.0 10.0 0.00 0.00 0.00 54 1014.1
20260905032131 89 60 5.0 10.0 0.00 0.00 0.00 53 1014.1
20260905030031 90 58 2.0 6.0 0.00 0.00 0.00 51 1014.1
20260905025331 90 59 2.0 6.0 0.00 0.00 0.00 51 1014.1
20260905024631 90 66 0.0 6.0 0.00 0.00 0.00 51 1014.1
20260905022531 91 46 0.0 8.0 0.00 0.00 0.00 50 1013.5
20260905021831 91 82 2.0 8.0 0.00 0.00 0.00 49 1013.5
20260905021131 91 60 2.0 8.0 0.00 0.00 0.00 49 1013.1
20260905020432 91 46 0.0 8.0 0.00 0.00 0.00 49 1013.1
20260905015731 91 60 0.0 8.0 0.00 0.00 0.00 49 1012.8
20260905014331 92 78 2.0 8.0 0.00 0.00 0.00 48 1012.8
20260905013631 92 68 5.0 8.0 0.00 0.00 0.00 48 1012.8
20260905012931 92 65 0.0 10.0 0.00 0.00 0.00 47 1012.8
20260905011531 93 96 5.0 10.0 0.00 0.00 0.00 47 1012.4
20260905010831 93 50 5.0 10.0 0.00 0.00 0.00 46 1012.4
20260905010131 93 76 2.0 10.0 0.00 0.00 0.00 46 1012.4
20260905005431 93 46 5.0 10.0 0.00 0.00 0.00 46 1012.4
20260905004731 94 59 0.0 10.0 0.00 0.00 0.00 45 1012.4
20260905004031 94 63 14.0 10.0 0.00 0.00 0.00 45 1012.4
20260905003331 94 63 5.0 10.0 0.00 0.00 0.00 45 1012.4
20260905002631 94 59 8.0 10.0 0.00 0.00 0.00 46 1012.1
20260905001931 94 79 5.0 12.0 0.00 0.00 0.00 46 1012.1
20260905001231 95 56 5.0 12.0 0.00 0.00 0.00 45 1012.4
20260905000531 95 34 5.0 12.0 0.00 0.00 0.00 46 1012.1
20260904235832 95 60 2.0 14.0 0.00 0.00 0.00 46 1012.1
20260904235131 95 86 11.0 14.0 0.00 0.00 0.00 46 1012.1
20260904234431 96 73 8.0 14.0 0.00 0.00 0.00 45 1012.1
20260904233031 96 73 8.0 14.0 0.00 0.00 0.00 45 1012.1
20260904232331 96 40 5.0 14.0 0.00 0.00 0.00 45 1011.8
20260904231631 96 57 2.0 14.0 0.00 0.00 0.00 45 1012.1
20260904230231 97 66 8.0 14.0 0.00 0.00 0.00 45 1012.1
20260904225531 97 59 2.0 14.0 0.00 0.00 0.00 45 1011.8
20260904224831 97 83 11.0 14.0 0.00 0.00 0.00 45 1012.1
20260904223431 98 56 2.0 12.0 0.00 0.00 0.00 44 1011.8
20260904222731 98 76 5.0 12.0 0.00 0.00 0.00 44 1011.8
20260904222031 99 92 11.0 12.0 0.00 0.00 0.00 44 1012.1
20260904214532 100 59 5.0 14.0 0.00 0.00 0.00 42 1012.1
20260904213831 100 103 5.0 14.0 0.00 0.00 0.00 42 1012.4
20260904213131 99 57 8.0 14.0 0.00 0.00 0.00 44 1012.4
20260904212431 98 61 8.0 17.0 0.00 0.00 0.00 43 1012.1
20260904211731 100 75 2.0 17.0 0.00 0.00 0.00 42 1012.4
20260904211031 101 70 11.0 17.0 0.00 0.00 0.00 41 1012.4
20260904210331 102 103 19.0 17.0 0.00 0.00 0.00 41 1012.8
20260904205631 103 80 8.0 17.0 0.00 0.00 0.00 40 1012.8
20260904204931 103 73 5.0 17.0 0.00 0.00 0.00 41 1012.8
20260904204230 103 54 14.0 17.0 0.00 0.00 0.00 41 1012.8
20260904203531 103 142 11.0 17.0 0.00 0.00 0.00 43 1012.8
20260904202831 102 60 0.0 14.0 0.00 0.00 0.00 43 1013.1
20260904202131 101 55 8.0 14.0 0.00 0.00 0.00 44 1013.1
20260904201431 100 57 8.0 14.0 0.00 0.00 0.00 45 1013.1
20260904200730 100 69 5.0 14.0 0.00 0.00 0.00 45 1013.1
20260904200031 100 61 2.0 14.0 0.00 0.00 0.00 45 1013.5
20260904194630 99 85 11.0 10.0 0.00 0.00 0.00 46 1013.8
20260904193931 99 94 14.0 10.0 0.00 0.00 0.00 46 1013.8
20260904193231 99 43 11.0 10.0 0.00 0.00 0.00 45 1013.8
20260904192530 99 94 14.0 12.0 0.00 0.00 0.00 46 1013.8
20260904190430 98 56 8.0 14.0 0.00 0.00 0.00 47 1014.1
20260904185030 98 83 0.0 14.0 0.00 0.00 0.00 46 1014.1
20260904184331 99 72 5.0 14.0 0.00 0.00 0.00 45 1014.5
20260904183630 99 88 5.0 14.0 0.00 0.00 0.00 47 1014.5
20260904182930 99 61 8.0 14.0 0.00 0.00 0.00 47 1014.8
20260904182231 98 24 8.0 14.0 0.00 0.00 0.00 47 1014.5
20260904181531 99 111 11.0 14.0 0.00 0.00 0.00 47 1014.8
20260904180830 99 105 5.0 14.0 0.00 0.00 0.00 49 1014.8
20260904175430 98 68 2.0 14.0 0.00 0.00 0.00 50 1014.8
20260904174730 98 67 5.0 10.0 0.00 0.00 0.00 51 1015.1
20260904174030 98 61 5.0 12.0 0.00 0.00 0.00 52 1015.5
20260904172630 97 61 5.0 12.0 0.00 0.00 0.00 54 1015.5
20260904171930 97 61 5.0 12.0 0.00 0.00 0.00 54 1015.8
20260904171230 96 56 0.0 12.0 0.00 0.00 0.00 56 1015.8
20260904170530 96 59 2.0 12.0 0.00 0.00 0.00 58 1015.8
20260904165831 95 67 5.0 12.0 0.00 0.00 0.00 58 1015.8
20260904165130 95 62 2.0 12.0 0.00 0.00 0.00 59 1015.5
20260904164430 95 100 14.0 12.0 0.00 0.00 0.00 60 1015.8
20260904163730 94 65 5.0 10.0 0.00 0.00 0.00 60 1015.8
20260904163030 94 75 5.0 10.0 0.00 0.00 0.00 62 1015.8
20260904162330 94 61 5.0 10.0 0.00 0.00 0.00 61 1015.8
20260904161630 93 94 5.0 10.0 0.00 0.00 0.00 61 1016.2
20260904160930 92 55 2.0 12.0 0.00 0.00 0.00 65 1015.8
20260904160233 92 45 14.0 12.0 0.00 0.00 0.00 64 1015.8
20260904155533 91 17 2.0 14.0 0.00 0.00 0.00 68 1015.8
20260904154833 90 82 5.0 14.0 0.00 0.00 0.00 69 1015.8
20260904154133 90 83 11.0 14.0 0.00 0.00 0.00 69 1015.8
20260904153433 89 60 2.0 14.0 0.00 0.00 0.00 71 1015.8
20260904152733 88 60 5.0 14.0 0.00 0.00 0.00 73 1015.8
20260904152033 87 63 2.0 14.0 0.00 0.00 0.00 74 1015.8
20260904150633 86 58 19.0 14.0 0.00 0.00 0.00 77 1015.5
20260904145933 85 62 2.0 10.0 0.00 0.00 0.00 78 1015.5
20260904145232 84 81 8.0 10.0 0.00 0.00 0.00 79 1015.8
20260904143833 83 55 8.0 12.0 0.00 0.00 0.00 80 1015.8
20260904142433 82 84 11.0 12.0 0.00 0.00 0.00 82 1015.8
20260904141733 82 63 5.0 12.0 0.00 0.00 0.00 82 1015.8
20260904141033 82 67 5.0 12.0 0.00 0.00 0.00 82 1015.8
20260904140333 81 53 2.0 12.0 0.00 0.00 0.00 83 1015.8
20260904135633 81 65 5.0 12.0 0.00 0.00 0.00 84 1015.5
20260904134933 80 110 8.0 12.0 0.00 0.00 0.00 84 1015.5
20260904133533 80 63 8.0 12.0 0.00 0.00 0.00 85 1015.5
20260904132833 79 61 8.0 12.0 0.00 0.00 0.00 86 1015.5
20260904132133 78 63 2.0 12.0 0.00 0.00 0.00 86 1015.1
20260904131433 78 62 0.0 12.0 0.00 0.00 0.00 86 1015.1
20260904130733 78 81 17.0 12.0 0.00 0.00 0.00 86 1015.1
20260904130032 78 63 5.0 10.0 0.00 0.00 0.00 86 1015.1
20260904124833 77 82 5.0 10.0 0.00 0.00 0.00 86 1015.1
20260904123433 77 71 5.0 10.0 0.00 0.00 0.00 86 1015.1
20260904122732 77 99 5.0 8.0 0.00 0.00 0.00 85 1014.8
20260904122032 77 45 5.0 8.0 0.00 0.00 0.00 85 1014.8
20260904121332 77 117 5.0 8.0 0.00 0.00 0.00 85 1014.8
20260904120632 77 64 0.0 8.0 0.00 0.00 0.00 85 1014.8
20260904115932 77 77 5.0 8.0 0.00 0.00 0.00 85 1014.8
20260904115232 77 66 2.0 8.0 0.00 0.00 0.00 84 1014.8
20260904114533 77 68 0.0 8.0 0.00 0.00 0.00 84 1014.5
20260904113132 77 59 0.0 8.0 0.00 0.00 0.00 84 1014.5
20260904112432 77 60 0.0 8.0 0.00 0.00 0.00 83 1014.5
20260904111732 77 59 0.0 8.0 0.00 0.00 0.00 83 1014.8
20260904111032 77 71 8.0 6.0 0.00 0.00 0.00 83 1014.5
20260904110332 77 61 2.0 6.0 0.00 0.00 0.00 83 1014.5
20260904105632 77 56 5.0 6.0 0.00 0.00 0.00 82 1014.5
20260904104932 77 68 5.0 6.0 0.00 0.00 0.00 82 1014.5
20260904103532 77 61 0.0 6.0 0.00 0.00 0.00 82 1014.5
20260904102132 77 60 0.0 6.0 0.00 0.00 0.00 81 1014.5
20260904101432 77 70 0.0 6.0 0.00 0.00 0.00 81 1014.1
20260904100732 77 60 0.0 6.0 0.00 0.00 0.00 81 1014.1
20260904100032 77 61 0.0 6.0 0.00 0.00 0.00 80 1014.1
20260904095332 78 67 2.0 6.0 0.00 0.00 0.00 80 1014.1
20260904094632 78 58 0.0 6.0 0.00 0.00 0.00 80 1014.1
20260904093932 78 63 0.0 6.0 0.00 0.00 0.00 80 1014.1
20260904093232 78 73 5.0 6.0 0.00 0.00 0.00 79 1014.1
20260904092532 78 87 5.0 6.0 0.00 0.00 0.00 79 1014.1
20260904091832 78 58 2.0 6.0 0.00 0.00 0.00 79 1014.1
20260904091132 78 72 0.0 6.0 0.00 0.00 0.00 79 1014.1
20260904090432 78 64 2.0 4.0 0.00 0.00 0.00 79 1014.1
20260904085732 78 67 5.0 6.0 0.00 0.00 0.00 79 1014.1
20260904084332 78 62 0.0 6.0 0.00 0.00 0.00 78 1014.1
20260904083632 78 60 0.0 6.0 0.00 0.00 0.00 78 1014.1
20260904082932 78 60 0.0 6.0 0.00 0.00 0.00 78 1014.1
20260904082232 78 60 0.0 6.0 0.00 0.00 0.00 77 1014.1
20260904081533 78 60 0.0 6.0 0.00 0.00 0.00 77 1014.1
20260904080832 79 67 2.0 6.0 0.00 0.00 0.00 77 1014.1
20260904075432 79 60 0.0 6.0 0.00 0.00 0.00 76 1014.1
20260904074732 79 60 0.0 6.0 0.00 0.00 0.00 76 1013.8
20260904074032 79 59 0.0 6.0 0.00 0.00 0.00 76 1013.8
20260904073332 79 63 0.0 6.0 0.00 0.00 0.00 76 1013.8
20260904072632 79 65 0.0 6.0 0.00 0.00 0.00 76 1013.8
20260904071932 79 59 0.0 6.0 0.00 0.00 0.00 75 1014.1
20260904071232 79 59 0.0 6.0 0.00 0.00 0.00 75 1014.1
20260904065832 80 68 0.0 6.0 0.00 0.00 0.00 74 1014.1
20260904063732 80 59 2.0 8.0 0.00 0.00 0.00 73 1014.5
20260904063032 80 59 2.0 8.0 0.00 0.00 0.00 73 1014.1
20260904060932 80 49 0.0 8.0 0.00 0.00 0.00 72 1014.1
20260904060232 80 62 0.0 8.0 0.00 0.00 0.00 72 1014.5
20260904055532 80 60 2.0 10.0 0.00 0.00 0.00 72 1014.1
20260904054132 80 75 8.0 10.0 0.00 0.00 0.00 72 1014.5
20260904053432 81 62 0.0 10.0 0.00 0.00 0.00 71 1014.1
20260904052032 81 59 5.0 10.0 0.00 0.00 0.00 71 1014.1
20260904051332 81 75 2.0 10.0 0.00 0.00 0.00 71 1014.1
20260904050632 81 22 2.0 10.0 0.00 0.00 0.00 71 1014.1
20260904045932 81 61 5.0 12.0 0.00 0.00 0.00 71 1014.1
20260904045232 81 93 8.0 12.0 0.00 0.00 0.00 70 1014.1
20260904044532 81 66 2.0 12.0 0.00 0.00 0.00 70 1014.1
20260904043831 81 78 14.0 12.0 0.00 0.00 0.00 70 1014.1
20260904043132 81 64 11.0 12.0 0.00 0.00 0.00 69 1014.1
20260904042431 81 68 5.0 12.0 0.00 0.00 0.00 69 1014.1
20260904041732 81 60 5.0 12.0 0.00 0.00 0.00 68 1014.1
20260904041033 81 60 2.0 12.0 0.00 0.00 0.00 68 1014.5
20260904040332 81 61 2.0 12.0 0.00 0.00 0.00 68 1014.5
20260904035632 81 59 0.0 12.0 0.00 0.00 0.00 67 1014.5
20260904034931 81 66 2.0 12.0 0.00 0.00 0.00 67 1014.1